Tracking 18980 objects as of 23-Feb-2018
HD Live streaming from Space Station
objects crossing your sky now

SL-16 DEB

Track SL-16 DEB now!
10-day predictions


NORAD ID: 22453
Int'l Code: 1992-093ES
Perigee: 827.3 km
Apogee: 1,077.1 km
Inclination: 70.8 °
Period: 103.9 minutes
Semi major axis: 7323 km
RCS: 0.0192 m2 (small)
Launch date: December 25, 1992
Source: Commonwealth of Independent States (former USSR) (CIS)
Launch site: TYURATAM MISSILE AND SPACE COMPLEX (TTMTR)

Note: This is SATELLITE DEBRIS
aabbcc
Your satellite tracking list
Your tracking list is empty




NASA's NSSDC Master Catalog

Two Line Element Set (TLE):
1 22453U 92093ES  18053.41544075 +.00000010 +00000-0 +42493-4 0  9993
2 22453 070.8053 160.8807 0170572 074.6192 002.0473 13.85331315266195
Source of the keplerian elements: AFSPC